15-08-2022, 00:00:01,    181,    0.0,   20.6,   0.00,   0.00, 1002.2,   37.7, -999.0
15-08-2022, 00:00:11,    181,    0.0,   20.5,   0.00,   0.00, 1002.2,   37.7, -999.0
15-08-2022, 00:00:21,    181,    0.0,   20.5,   0.00,   0.00, 1002.2,   37.8, -999.0
15-08-2022, 00:00:31,    181,    0.0,   20.5,   0.00,   0.00, 1002.2,   37.8, -999.0
15-08-2022, 00:00:41,    181,    0.0,   20.5,   0.00,   0.00, 1002.2,   37.7, -999.0
15-08-2022, 00:00:51,    181,    0.0,   20.6,   0.00,   0.00, 1002.2,   37.7, -999.0
15-08-2022, 00:01:01,    181,    0.0,   20.6,   0.00,   0.00, 1002.2,   37.6, -999.0
15-08-2022, 00:01:10,    181,    0.0,   20.5,   0.00,   0.00, 1002.2,   37.7, -999.0
15-08-2022, 00:01:21,    181,    0.0,   20.6,   0.00,   0.00, 1002.2,   37.7, -999.0
15-08-2022, 00:01:31,    181,    0.0,   20.6,   0.00,   0.00, 1002.2,   37.6, -999.0
15-08-2022, 00:01:40,    181,    0.0,   20.6,   0.00,   0.00, 1002.1,   37.8, -999.0
15-08-2022, 00:01:50,    181,    0.0,   20.6,   0.00,   0.00, 1002.2,   37.9, -999.0
15-08-2022, 00:02:01,    181,    0.0,   20.4,   0.00,   0.00, 1002.2,   37.7, -999.0
15-08-2022, 00:02:10,    181,    0.0,   20.5,   0.00,   0.00, 1002.2,   37.8, -999.0
15-08-2022, 00:02:20,    181,    0.0,   20.6,   0.00,   0.00, 1002.2,   37.7, -999.0
15-08-2022, 00:02:30,    181,    0.0,   20.6,   0.00,   0.00, 1002.1,   37.8, -999.0
15-08-2022, 00:02:40,    181,    0.0,   20.5,   0.00,   0.00, 1002.2,   37.7, -999.0
15-08-2022, 00:02:50,    181,    0.0,   20.6,   0.00,   0.00, 1002.2,   37.8, -999.0
15-08-2022, 00:03:00,    181,    0.0,   20.5,   0.00,   0.00, 1002.2,   37.8, -999.0
15-08-2022, 00:03:10,    181,    0.3,   20.5,   0.00,   0.00, 1002.2,   37.9, -999.0
15-08-2022, 00:03:20,    181,    0.0,   20.5,   0.00,   0.00, 1002.1,   37.9, -999.0
15-08-2022, 00:03:30,    181,    0.0,   20.4,   0.00,   0.00, 1002.2,   37.8, -999.0
15-08-2022, 00:03:40,    181,    0.0,   20.4,   0.00,   0.00, 1002.2,   37.8, -999.0
15-08-2022, 00:03:50,    181,    0.0,   20.4,   0.00,   0.00, 1002.2,   37.9, -999.0
15-08-2022, 00:04:00,    181,    0.0,   20.5,   0.00,   0.00, 1002.2,   37.9, -999.0
15-08-2022, 00:04:09,    181,    0.0,   20.5,   0.00,   0.00, 1002.2,   37.9, -999.0
15-08-2022, 00:04:19,    181,    0.0,   20.4,   0.00,   0.00, 1002.2,   38.0, -999.0
15-08-2022, 00:04:30,    181,    0.0,   20.4,   0.00,   0.00, 1002.1,   38.0, -999.0
15-08-2022, 00:04:39,    181,    0.0,   20.4,   0.00,   0.00, 1002.2,   38.0, -999.0
15-08-2022, 00:04:49,    181,    0.0,   20.4,   0.00,   0.00, 1002.1,   37.9, -999.0
15-08-2022, 00:05:00,    181,    0.0,   20.4,   0.00,   0.00, 1002.2,   38.1, -999.0
15-08-2022, 00:05:09,    181,    0.0,   20.4,   0.00,   0.00, 1002.2,   38.0, -999.0
15-08-2022, 00:05:19,    181,    0.0,   20.4,   0.00,   0.00, 1002.2,   38.2, -999.0
15-08-2022, 00:05:29,    181,    0.0,   20.4,   0.00,   0.00, 1002.2,   38.1, -999.0
15-08-2022, 00:05:39,    181,    0.0,   20.4,   0.00,   0.00, 1002.2,   38.2, -999.0
15-08-2022, 00:05:49,    181,    0.0,   20.4,   0.00,   0.00, 1002.2,   38.2, -999.0
15-08-2022, 00:05:59,    181,    0.0,   20.4,   0.00,   0.00, 1002.2,   38.2, -999.0
15-08-2022, 00:06:09,    181,    0.0,   20.4,   0.00,   0.00, 1002.2,   38.3, -999.0
15-08-2022, 00:06:19,    181,    0.0,   20.4,   0.00,   0.00, 1002.2,   38.3, -999.0
15-08-2022, 00:06:29,    181,    0.0,   20.5,   0.00,   0.00, 1002.2,   38.2, -999.0
15-08-2022, 00:06:39,    181,    0.0,   20.5,   0.00,   0.00, 1002.2,   38.2, -999.0
15-08-2022, 00:06:48,    181,    0.0,   20.5,   0.00,   0.00, 1002.2,   38.1, -999.0
15-08-2022, 00:06:59,    181,    0.0,   20.5,   0.00,   0.00, 1002.2,   38.1, -999.0
15-08-2022, 00:07:09,    181,    0.0,   20.4,   0.00,   0.00, 1002.2,   38.2, -999.0
15-08-2022, 00:07:18,    181,    0.0,   20.5,   0.00,   0.00, 1002.2,   38.2, -999.0
15-08-2022, 00:07:28,    181,    0.0,   20.5,   0.00,   0.00, 1002.2,   38.1, -999.0
15-08-2022, 00:07:38,    181,    0.0,   20.5,   0.00,   0.00, 1002.2,   38.1, -999.0
15-08-2022, 00:07:48,    180,    0.0,   20.5,   0.00,   0.00, 1002.1,   38.1, -999.0
15-08-2022, 00:07:58,    181,    0.0,   20.5,   0.00,   0.00, 1002.2,   38.2, -999.0
15-08-2022, 00:08:08,    181,    0.0,   20.5,   0.00,   0.00, 1002.2,   38.2, -999.0
15-08-2022, 00:08:18,    180,    0.0,   20.5,   0.00,   0.00, 1002.1,   38.2, -999.0
15-08-2022, 00:08:28,    181,    0.0,   20.5,   0.00,   0.00, 1002.1,   38.2, -999.0
15-08-2022, 00:08:38,    181,    0.0,   20.5,   0.00,   0.00, 1002.1,   38.2, -999.0
15-08-2022, 00:08:48,    181,    0.0,   20.5,   0.00,   0.00, 1002.1,   38.2, -999.0
15-08-2022, 00:08:58,    181,    0.0,   20.4,   0.00,   0.00, 1002.1,   38.2, -999.0
15-08-2022, 00:09:08,    181,    0.0,   20.4,   0.00,   0.00, 1002.1,   38.2, -999.0
15-08-2022, 00:09:18,    181,    0.0,   20.4,   0.00,   0.00, 1002.1,   38.2, -999.0
15-08-2022, 00:09:28,    181,    0.0,   20.4,   0.00,   0.00, 1002.1,   38.2, -999.0
15-08-2022, 00:09:38,    181,    0.0,   20.4,   0.00,   0.00, 1002.1,   38.1, -999.0
15-08-2022, 00:09:47,    181,    0.0,   20.4,   0.00,   0.00, 1002.1,   38.2, -999.0
15-08-2022, 00:09:57,    181,    0.0,   20.3,   0.00,   0.00, 1002.1,   38.2, -999.0
15-08-2022, 00:10:08,    181,    0.0,   20.4,   0.00,   0.00, 1002.1,   38.3, -999.0
15-08-2022, 00:10:17,    181,    0.0,   20.4,   0.00,   0.00, 1002.1,   38.3, -999.0
15-08-2022, 00:10:27,    181,    0.0,   20.4,   0.00,   0.00, 1002.1,   38.3, -999.0
15-08-2022, 00:10:37,    181,    0.0,   20.4,   0.00,   0.00, 1002.1,   38.3, -999.0
15-08-2022, 00:10:47,    180,    0.0,   20.4,   0.00,   0.00, 1002.1,   38.3, -999.0
15-08-2022, 00:10:57,    181,    0.0,   20.4,   0.00,   0.00, 1002.1,   38.4, -999.0
15-08-2022, 00:11:07,    181,    0.0,   20.4,   0.00,   0.00, 1002.1,   38.4, -999.0
15-08-2022, 00:11:17,    180,    0.0,   20.4,   0.00,   0.00, 1002.1,   38.3, -999.0
15-08-2022, 00:11:27,    181,    0.0,   20.4,   0.00,   0.00, 1002.1,   38.3, -999.0
15-08-2022, 00:11:37,    181,    0.0,   20.3,   0.00,   0.00, 1002.1,   38.3, -999.0
15-08-2022, 00:11:47,    181,    0.0,   20.3,   0.00,   0.00, 1002.1,   38.3, -999.0
15-08-2022, 00:11:57,    181,    0.0,   20.3,   0.00,   0.00, 1002.1,   38.2, -999.0
15-08-2022, 00:12:07,    181,    0.0,   20.3,   0.00,   0.00, 1002.1,   38.5, -999.0
15-08-2022, 00:12:17,    181,    0.0,   20.4,   0.00,   0.00, 1002.1,   38.5, -999.0
15-08-2022, 00:12:27,    181,    0.0,   20.3,   0.00,   0.00, 1002.1,   38.5, -999.0
15-08-2022, 00:12:37,    180,    0.0,   20.2,   0.00,   0.00, 1002.1,   38.4, -999.0
15-08-2022, 00:12:46,    180,    0.0,   20.3,   0.00,   0.00, 1002.1,   38.5, -999.0
15-08-2022, 00:12:56,    181,    0.0,   20.3,   0.00,   0.00, 1002.1,   38.4, -999.0
15-08-2022, 00:13:07,    181,    0.0,   20.3,   0.00,   0.00, 1002.1,   38.5, -999.0
15-08-2022, 00:13:16,    181,    0.0,   20.3,   0.00,   0.00, 1002.1,   38.6, -999.0
15-08-2022, 00:13:26,    181,    0.0,   20.3,   0.00,   0.00, 1002.1,   38.4, -999.0
15-08-2022, 00:13:36,    181,    0.0,   20.3,   0.00,   0.00, 1002.1,   38.6, -999.0
15-08-2022, 00:13:46,    181,    0.0,   20.3,   0.00,   0.00, 1002.1,   38.6, -999.0
15-08-2022, 00:13:56,    181,    0.0,   20.3,   0.00,   0.00, 1002.1,   38.6, -999.0
15-08-2022, 00:14:06,    181,    0.0,   20.2,   0.00,   0.00, 1002.1,   38.5, -999.0
15-08-2022, 00:14:16,    181,    0.0,   20.2,   0.00,   0.00, 1002.1,   38.6, -999.0
15-08-2022, 00:14:26,    181,    0.0,   20.2,   0.00,   0.00, 1002.1,   38.6, -999.0
15-08-2022, 00:14:36,    181,    0.0,   20.3,   0.00,   0.00, 1002.1,   38.7, -999.0
15-08-2022, 00:14:46,    180,    0.0,   20.2,   0.00,   0.00, 1002.1,   38.7, -999.0
15-08-2022, 00:14:56,    180,    0.0,   20.2,   0.00,   0.00, 1002.1,   38.7, -999.0
15-08-2022, 00:15:06,    181,    0.0,   20.1,   0.00,   0.00, 1002.1,   38.6, -999.0
15-08-2022, 00:15:16,    181,    0.0,   20.2,   0.00,   0.00, 1002.1,   38.7, -999.0
15-08-2022, 00:15:25,    181,    0.0,   20.2,   0.00,   0.00, 1002.1,   38.7, -999.0
15-08-2022, 00:15:36,    181,    0.0,   20.2,   0.00,   0.00, 1002.1,   38.7, -999.0
15-08-2022, 00:15:45,    181,    0.0,   20.2,   0.00,   0.00, 1002.1,   38.7, -999.0
15-08-2022, 00:15:55,    180,    0.0,   20.1,   0.00,   0.00, 1002.1,   38.9, -999.0
15-08-2022, 00:16:05,    181,    0.0,   20.1,   0.00,   0.00, 1002.1,   38.7, -999.0
15-08-2022, 00:16:15,    181,    0.0,   20.2,   0.00,   0.00, 1002.1,   38.8, -999.0
15-08-2022, 00:16:25,    181,    0.0,   20.2,   0.00,   0.00, 1002.1,   38.9, -999.0
15-08-2022, 00:16:35,    180,    0.0,   20.1,   0.00,   0.00, 1002.0,   38.8, -999.0
15-08-2022, 00:16:45,    181,    0.0,   20.1,   0.00,   0.00, 1002.0,   38.9, -999.0
15-08-2022, 00:16:55,    181,    0.0,   20.1,   0.00,   0.00, 1002.0,   39.0, -999.0
15-08-2022, 00:17:05,    181,    0.0,   20.1,   0.00,   0.00, 1002.0,   39.0, -999.0
15-08-2022, 00:17:16,    181,    0.0,   20.2,   0.00,   0.00, 1002.1,   39.0, -999.0
15-08-2022, 00:17:25,    181,    0.0,   20.1,   0.00,   0.00, 1002.1,   39.1, -999.0
15-08-2022, 00:17:35,    180,    0.0,   20.0,   0.00,   0.00, 1002.0,   39.1, -999.0
15-08-2022, 00:17:45,    181,    0.0,   20.2,   0.00,   0.00, 1002.1,   39.0, -999.0
15-08-2022, 00:17:54,    181,    0.0,   20.1,   0.00,   0.00, 1002.0,   39.0, -999.0
15-08-2022, 00:18:05,    180,    0.0,   20.2,   0.00,   0.00, 1002.0,   39.1, -999.0
15-08-2022, 00:18:15,    180,    0.0,   20.2,   0.00,   0.00, 1002.0,   38.9, -999.0
15-08-2022, 00:18:24,    180,    0.0,   20.2,   0.00,   0.00, 1002.0,   39.0, -999.0
15-08-2022, 00:18:35,    180,    0.0,   20.2,   0.00,   0.00, 1002.0,   38.9, -999.0
15-08-2022, 00:18:44,    180,    0.0,   20.1,   0.00,   0.00, 1002.0,   39.1, -999.0
15-08-2022, 00:18:54,    180,    0.0,   20.2,   0.00,   0.00, 1002.0,   39.0, -999.0
15-08-2022, 00:19:04,    181,    0.0,   20.2,   0.00,   0.00, 1002.1,   39.0, -999.0
15-08-2022, 00:19:14,    180,    0.0,   20.2,   0.00,   0.00, 1002.0,   39.1, -999.0
15-08-2022, 00:19:24,    180,    0.0,   20.2,   0.00,   0.00, 1002.0,   39.0, -999.0
15-08-2022, 00:19:34,    180,    0.0,   20.2,   0.00,   0.00, 1002.0,   39.0, -999.0
15-08-2022, 00:19:44,    181,    0.0,   20.2,   0.00,   0.00, 1002.0,   39.0, -999.0
15-08-2022, 00:19:54,    180,    0.0,   20.2,   0.00,   0.00, 1002.0,   39.1, -999.0
15-08-2022, 00:20:04,    180,    0.0,   20.2,   0.00,   0.00, 1002.0,   38.9, -999.0
15-08-2022, 00:20:14,    180,    0.0,   20.1,   0.00,   0.00, 1002.0,   39.0, -999.0
15-08-2022, 00:20:23,    180,    0.0,   20.2,   0.00,   0.00, 1002.0,   39.1, -999.0
15-08-2022, 00:20:34,    180,    0.0,   20.2,   0.00,   0.00, 1002.0,   39.1, -999.0
15-08-2022, 00:20:44,    180,    0.0,   20.2,   0.00,   0.00, 1002.0,   39.1, -999.0
15-08-2022, 00:20:53,    180,    0.0,   20.2,   0.00,   0.00, 1002.0,   39.1, -999.0
15-08-2022, 00:21:04,    180,    0.0,   20.2,   0.00,   0.00, 1002.0,   39.0, -999.0
15-08-2022, 00:21:14,    180,    0.0,   20.2,   0.00,   0.00, 1002.0,   39.1, -999.0
15-08-2022, 00:21:23,    180,    0.0,   20.2,   0.00,   0.00, 1002.0,   39.0, -999.0
15-08-2022, 00:21:33,    180,    0.0,   20.2,   0.00,   0.00, 1002.0,   39.1, -999.0
15-08-2022, 00:21:43,    180,    0.0,   20.2,   0.00,   0.00, 1002.0,   39.2, -999.0
15-08-2022, 00:21:53,    180,    0.0,   20.2,   0.00,   0.00, 1002.0,   39.2, -999.0
15-08-2022, 00:22:03,    181,    0.0,   20.2,   0.00,   0.00, 1002.0,   39.3, -999.0
15-08-2022, 00:22:13,    180,    0.0,   20.3,   0.00,   0.00, 1002.0,   39.2, -999.0
15-08-2022, 00:22:23,    180,    0.0,   20.2,   0.00,   0.00, 1002.0,   39.1, -999.0
15-08-2022, 00:22:33,    180,    0.0,   20.2,   0.00,   0.00, 1002.0,   39.2, -999.0
15-08-2022, 00:22:43,    180,    0.0,   20.2,   0.00,   0.00, 1002.0,   39.1, -999.0
15-08-2022, 00:22:53,    180,    0.0,   20.2,   0.00,   0.00, 1002.0,   39.1, -999.0
15-08-2022, 00:23:03,    180,    0.0,   20.2,   0.00,   0.00, 1002.0,   39.2, -999.0
15-08-2022, 00:23:13,    180,    0.0,   20.2,   0.00,   0.00, 1002.0,   39.2, -999.0
15-08-2022, 00:23:23,    180,    0.0,   20.2,   0.00,   0.00, 1002.0,   39.2, -999.0
15-08-2022, 00:23:33,    180,    0.0,   20.3,   0.00,   0.00, 1002.0,   39.1, -999.0
15-08-2022, 00:23:43,    180,    0.0,   20.2,   0.00,   0.00, 1002.0,   39.1, -999.0
15-08-2022, 00:23:52,    180,    0.0,   20.2,   0.00,   0.00, 1002.0,   39.1, -999.0
15-08-2022, 00:24:02,    180,    0.0,   20.2,   0.00,   0.00, 1002.0,   39.1, -999.0
15-08-2022, 00:24:13,    180,    0.0,   20.2,   0.00,   0.00, 1002.0,   39.1, -999.0
15-08-2022, 00:24:22,    180,    0.0,   20.2,   0.00,   0.00, 1002.0,   39.0, -999.0
15-08-2022, 00:24:32,    180,    0.0,   20.1,   0.00,   0.00, 1002.0,   39.1, -999.0
15-08-2022, 00:24:42,    180,    0.0,   20.1,   0.00,   0.00, 1002.0,   39.1, -999.0
15-08-2022, 00:24:52,    180,    0.0,   20.1,   0.00,   0.00, 1002.0,   39.1, -999.0
15-08-2022, 00:25:02,    180,    0.0,   20.2,   0.00,   0.00, 1002.0,   39.1, -999.0
15-08-2022, 00:25:12,    180,    0.0,   20.1,   0.00,   0.00, 1002.0,   39.1, -999.0
15-08-2022, 00:25:22,    180,    0.0,   20.1,   0.00,   0.00, 1002.0,   39.3, -999.0
15-08-2022, 00:25:32,    180,    0.0,   20.1,   0.00,   0.00, 1002.0,   39.2, -999.0
15-08-2022, 00:25:42,    180,    0.0,   20.1,   0.00,   0.00, 1002.0,   39.2, -999.0
15-08-2022, 00:25:52,    180,    0.0,   20.1,   0.00,   0.00, 1002.0,   39.3, -999.0
15-08-2022, 00:26:02,    180,    0.0,   20.1,   0.00,   0.00, 1002.0,   39.3, -999.0
15-08-2022, 00:26:12,    180,    0.0,   20.1,   0.00,   0.00, 1002.0,   39.4, -999.0
15-08-2022, 00:26:21,    180,    0.0,   20.1,   0.00,   0.00, 1002.0,   39.3, -999.0
15-08-2022, 00:26:31,    180,    0.0,   20.1,   0.00,   0.00, 1002.0,   39.3, -999.0
15-08-2022, 00:26:42,    180,    0.0,   20.1,   0.00,   0.00, 1002.0,   39.2, -999.0
15-08-2022, 00:26:51,    180,    0.0,   20.1,   0.00,   0.00, 1002.0,   39.2, -999.0
15-08-2022, 00:27:01,    180,    0.0,   20.1,   0.00,   0.00, 1002.0,   39.3, -999.0
15-08-2022, 00:27:11,    177,    0.0,   20.0,   0.00,   0.00, 1002.0,   39.2, -999.0
15-08-2022, 00:27:21,    180,    0.0,   20.1,   0.00,   0.00, 1002.0,   39.2, -999.0
15-08-2022, 00:27:31,    180,    0.0,   20.1,   0.00,   0.00, 1002.0,   39.3, -999.0
15-08-2022, 00:27:41,    181,    0.0,   20.1,   0.00,   0.00, 1002.0,   39.4, -999.0
15-08-2022, 00:27:51,    180,    0.0,   20.0,   0.00,   0.00, 1002.0,   39.3, -999.0
15-08-2022, 00:28:01,    181,    0.0,   20.0,   0.00,   0.00, 1002.0,   39.4, -999.0
15-08-2022, 00:28:11,    180,    0.0,   20.0,   0.00,   0.00, 1002.0,   39.4, -999.0
15-08-2022, 00:28:21,    180,    0.0,   20.1,   0.00,   0.00, 1002.0,   39.5, -999.0
15-08-2022, 00:28:31,    180,    0.0,   20.0,   0.00,   0.00, 1002.0,   39.5, -999.0
15-08-2022, 00:28:41,    180,    0.0,   20.0,   0.00,   0.00, 1002.0,   39.6, -999.0
15-08-2022, 00:28:51,    179,    0.0,   20.0,   0.00,   0.00, 1002.0,   39.5, -999.0
15-08-2022, 00:29:00,    180,    0.0,   20.0,   0.00,   0.00, 1002.0,   39.5, -999.0
15-08-2022, 00:29:11,    180,    0.0,   20.0,   0.00,   0.00, 1002.0,   39.6, -999.0
15-08-2022, 00:29:21,    180,    0.0,   20.1,   0.00,   0.00, 1002.0,   39.7, -999.0
15-08-2022, 00:29:30,    180,    0.0,   20.1,   0.00,   0.00, 1002.0,   39.5, -999.0
15-08-2022, 00:29:40,    180,    0.0,   20.1,   0.00,   0.00, 1002.0,   39.7, -999.0
15-08-2022, 00:29:50,    180,    0.0,   20.1,   0.00,   0.00, 1002.0,   39.6, -999.0
15-08-2022, 00:30:00,    181,    0.0,   20.1,   0.00,   0.00, 1002.0,   39.6, -999.0
15-08-2022, 00:30:10,    180,    0.0,   20.1,   0.00,   0.00, 1002.0,   39.5, -999.0
15-08-2022, 00:30:20,    180,    0.0,   20.1,   0.00,   0.00, 1002.0,   39.6, -999.0
15-08-2022, 00:30:30,    180,    0.0,   20.1,   0.00,   0.00, 1002.0,   39.6, -999.0
15-08-2022, 00:30:40,    180,    0.0,   20.1,   0.00,   0.00, 1002.0,   39.6, -999.0
15-08-2022, 00:30:50,    180,    0.0,   20.2,   0.00,   0.00, 1002.0,   39.6, -999.0
15-08-2022, 00:31:00,    180,    0.0,   20.1,   0.00,   0.00, 1002.0,   39.6, -999.0
15-08-2022, 00:31:10,    180,    0.0,   20.1,   0.00,   0.00, 1002.0,   39.6, -999.0
15-08-2022, 00:31:20,    180,    0.0,   20.1,   0.00,   0.00, 1002.0,   39.6, -999.0
15-08-2022, 00:31:30,    180,    0.0,   20.1,   0.00,   0.00, 1002.0,   39.6, -999.0
15-08-2022, 00:31:40,    180,    0.0,   20.1,   0.00,   0.00, 1002.0,   39.6, -999.0
15-08-2022, 00:31:50,    180,    0.0,   20.1,   0.00,   0.00, 1002.0,   39.6, -999.0
15-08-2022, 00:31:59,    180,    0.0,   20.2,   0.00,   0.00, 1002.0,   39.5, -999.0
15-08-2022, 00:32:09,    180,    0.0,   20.1,   0.00,   0.00, 1002.0,   39.5, -999.0
15-08-2022, 00:32:20,    180,    0.0,   20.1,   0.00,   0.00, 1002.0,   39.6, -999.0
15-08-2022, 00:32:29,    180,    0.0,   20.1,   0.00,   0.00, 1002.0,   39.6, -999.0
15-08-2022, 00:32:39,    180,    0.0,   20.2,   0.00,   0.00, 1002.0,   39.5, -999.0
15-08-2022, 00:32:49,    178,    0.0,   20.2,   0.00,   0.00, 1002.0,   39.6, -999.0
15-08-2022, 00:32:59,    181,    0.0,   20.1,   0.00,   0.00, 1002.0,   39.6, -999.0
15-08-2022, 00:33:09,    180,    0.0,   20.1,   0.00,   0.00, 1002.0,   39.6, -999.0
15-08-2022, 00:33:19,    180,    0.0,   20.2,   0.00,   0.00, 1002.0,   39.6, -999.0
15-08-2022, 00:33:29,    180,    0.0,   20.1,   0.00,   0.00, 1002.0,   39.7, -999.0
15-08-2022, 00:33:39,    180,    0.0,   20.1,   0.00,   0.00, 1002.0,   39.6, -999.0
15-08-2022, 00:33:49,    176,    0.0,   20.1,   0.00,   0.00, 1002.0,   39.6, -999.0
15-08-2022, 00:33:59,    168,    0.6,   20.2,   0.00,   0.00, 1002.1,   40.0, -999.0
15-08-2022, 00:34:09,    166,    0.4,   20.2,   0.00,   0.00, 1002.1,   39.9, -999.0
15-08-2022, 00:34:19,    166,    0.0,   20.1,   0.00,   0.00, 1002.0,   39.9, -999.0
15-08-2022, 00:34:29,    166,    0.0,   20.1,   0.00,   0.00, 1002.0,   39.6, -999.0
15-08-2022, 00:34:39,    166,    0.0,   20.0,   0.00,   0.00, 1002.0,   39.7, -999.0
15-08-2022, 00:34:49,    166,    0.0,   20.0,   0.00,   0.00, 1002.0,   39.7, -999.0
15-08-2022, 00:34:58,    166,    0.0,   20.0,   0.00,   0.00, 1002.0,   39.7, -999.0
15-08-2022, 00:35:08,    166,    0.0,   20.1,   0.00,   0.00, 1002.0,   39.8, -999.0
15-08-2022, 00:35:19,    166,    0.0,   20.0,   0.00,   0.00, 1002.0,   39.7, -999.0
15-08-2022, 00:35:28,    166,    0.0,   20.0,   0.00,   0.00, 1002.0,   39.8, -999.0
15-08-2022, 00:35:38,    166,    0.0,   20.0,   0.00,   0.00, 1002.0,   39.7, -999.0
15-08-2022, 00:35:48,    166,    0.0,   20.0,   0.00,   0.00, 1002.0,   39.8, -999.0
15-08-2022, 00:35:58,    166,    0.0,   20.0,   0.00,   0.00, 1002.0,   39.8, -999.0
15-08-2022, 00:36:08,    166,    0.0,   20.0,   0.00,   0.00, 1002.0,   39.8, -999.0
15-08-2022, 00:36:18,    166,    0.0,   20.1,   0.00,   0.00, 1002.0,   39.8, -999.0
15-08-2022, 00:36:28,    166,    0.0,   20.1,   0.00,   0.00, 1002.0,   39.8, -999.0
15-08-2022, 00:36:38,    167,    0.0,   20.0,   0.00,   0.00, 1002.0,   39.8, -999.0
15-08-2022, 00:36:48,    166,    0.0,   20.0,   0.00,   0.00, 1002.0,   39.8, -999.0
15-08-2022, 00:36:58,    166,    0.0,   20.0,   0.00,   0.00, 1002.0,   39.8, -999.0
15-08-2022, 00:37:08,    166,    0.0,   20.0,   0.00,   0.00, 1002.0,   39.9, -999.0
15-08-2022, 00:37:18,    166,    0.0,   20.0,   0.00,   0.00, 1002.0,   39.9, -999.0
15-08-2022, 00:37:28,    166,    0.0,   20.0,   0.00,   0.00, 1002.0,   39.8, -999.0
15-08-2022, 00:37:37,    166,    0.0,   20.0,   0.00,   0.00, 1002.0,   39.9, -999.0
15-08-2022, 00:37:48,    166,    0.0,   20.1,   0.00,   0.00, 1002.0,   39.9, -999.0
15-08-2022, 00:37:57,    166,    0.0,   20.1,   0.00,   0.00, 1002.0,   40.0, -999.0
15-08-2022, 00:38:07,    166,    0.0,   20.1,   0.00,   0.00, 1002.0,   40.0, -999.0
15-08-2022, 00:38:17,    166,    0.0,   20.2,   0.00,   0.00, 1002.0,   39.7, -999.0
15-08-2022, 00:38:27,    166,    0.0,   20.1,   0.00,   0.00, 1002.0,   39.9, -999.0
15-08-2022, 00:38:37,    166,    0.0,   20.1,   0.00,   0.00, 1002.0,   39.9, -999.0
15-08-2022, 00:38:47,    166,    0.0,   20.1,   0.00,   0.00, 1002.0,   39.9, -999.0
15-08-2022, 00:38:57,    166,    0.0,   20.0,   0.00,   0.00, 1002.0,   39.9, -999.0
15-08-2022, 00:39:07,    166,    0.0,   20.1,   0.00,   0.00, 1002.0,   40.0, -999.0
15-08-2022, 00:39:17,    166,    0.0,   20.1,   0.00,   0.00, 1002.0,   40.0, -999.0
15-08-2022, 00:39:27,    166,    0.0,   20.1,   0.00,   0.00, 1002.0,   40.0, -999.0
15-08-2022, 00:39:37,    166,    0.0,   20.1,   0.00,   0.00, 1002.0,   39.9, -999.0
15-08-2022, 00:39:47,    166,    0.0,   20.1,   0.00,   0.00, 1002.0,   40.0, -999.0
15-08-2022, 00:39:57,    166,    0.0,   20.1,   0.00,   0.00, 1002.0,   40.0, -999.0
15-08-2022, 00:40:06,    166,    0.0,   20.1,   0.00,   0.00, 1002.0,   40.0, -999.0
15-08-2022, 00:40:17,    166,    0.0,   20.1,   0.00,   0.00, 1002.0,   40.0, -999.0
15-08-2022, 00:40:27,    166,    0.0,   20.0,   0.00,   0.00, 1002.0,   40.0, -999.0
15-08-2022, 00:40:36,    166,    0.0,   20.1,   0.00,   0.00, 1002.0,   40.2, -999.0
15-08-2022, 00:40:47,    166,    0.0,   20.0,   0.00,   0.00, 1002.0,   40.1, -999.0
15-08-2022, 00:40:56,    166,    0.0,   20.0,   0.00,   0.00, 1002.0,   40.2, -999.0
15-08-2022, 00:41:06,    166,    0.0,   19.9,   0.00,   0.00, 1002.0,   40.2, -999.0
15-08-2022, 00:41:16,    166,    0.0,   20.0,   0.00,   0.00, 1002.0,   40.2, -999.0
15-08-2022, 00:41:26,    166,    0.0,   20.0,   0.00,   0.00, 1002.0,   40.1, -999.0
15-08-2022, 00:41:36,    166,    0.0,   20.0,   0.00,   0.00, 1002.0,   40.3, -999.0
15-08-2022, 00:41:46,    166,    0.0,   20.0,   0.00,   0.00, 1002.0,   40.3, -999.0
15-08-2022, 00:41:56,    166,    0.0,   20.0,   0.00,   0.00, 1002.0,   40.2, -999.0
15-08-2022, 00:42:06,    166,    0.0,   20.0,   0.00,   0.00, 1002.0,   40.4, -999.0
15-08-2022, 00:42:16,    166,    0.0,   19.9,   0.00,   0.00, 1002.0,   40.2, -999.0
15-08-2022, 00:42:26,    166,    0.0,   20.0,   0.00,   0.00, 1002.0,   40.2, -999.0
15-08-2022, 00:42:36,    166,    0.0,   20.0,   0.00,   0.00, 1002.0,   40.3, -999.0
15-08-2022, 00:42:46,    166,    0.0,   20.0,   0.00,   0.00, 1002.0,   40.3, -999.0
15-08-2022, 00:42:56,    166,    0.0,   20.0,   0.00,   0.00, 1002.0,   40.2, -999.0
15-08-2022, 00:43:05,    166,    0.0,   20.0,   0.00,   0.00, 1002.0,   40.4, -999.0
15-08-2022, 00:43:16,    166,    0.0,   19.9,   0.00,   0.00, 1002.0,   40.2, -999.0
15-08-2022, 00:43:26,    166,    0.0,   19.9,   0.00,   0.00, 1002.0,   40.4, -999.0
15-08-2022, 00:43:35,    166,    0.0,   19.9,   0.00,   0.00, 1002.0,   40.4, -999.0
15-08-2022, 00:43:45,    166,    0.0,   20.0,   0.00,   0.00, 1002.0,   40.3, -999.0
15-08-2022, 00:43:55,    166,    0.0,   20.0,   0.00,   0.00, 1002.0,   40.4, -999.0
15-08-2022, 00:44:05,    166,    0.0,   20.0,   0.00,   0.00, 1002.0,   40.4, -999.0
15-08-2022, 00:44:15,    166,    0.0,   20.0,   0.00,   0.00, 1002.0,   40.3, -999.0
15-08-2022, 00:44:25,    166,    0.0,   20.0,   0.00,   0.00, 1002.0,   40.3, -999.0
15-08-2022, 00:44:35,    166,    0.0,   20.0,   0.00,   0.00, 1002.0,   40.2, -999.0
15-08-2022, 00:44:45,    166,    0.0,   20.0,   0.00,   0.00, 1002.0,   40.4, -999.0
15-08-2022, 00:44:55,    166,    0.0,   20.0,   0.00,   0.00, 1002.0,   40.2, -999.0
15-08-2022, 00:45:05,    166,    0.0,   20.0,   0.00,   0.00, 1002.0,   40.3, -999.0
15-08-2022, 00:45:15,    166,    0.0,   20.0,   0.00,   0.00, 1002.0,   40.3, -999.0
15-08-2022, 00:45:25,    166,    0.0,   20.0,   0.00,   0.00, 1002.0,   40.3, -999.0
15-08-2022, 00:45:34,    166,    0.0,   19.9,   0.00,   0.00, 1002.0,   40.3, -999.0
15-08-2022, 00:45:45,    166,    0.0,   20.0,   0.00,   0.00, 1002.0,   40.3, -999.0
15-08-2022, 00:45:55,    166,    0.0,   20.0,   0.00,   0.00, 1002.0,   40.4, -999.0
15-08-2022, 00:46:04,    166,    0.0,   20.0,   0.00,   0.00, 1002.0,   40.3, -999.0
15-08-2022, 00:46:14,    166,    0.0,   20.0,   0.00,   0.00, 1002.0,   40.2, -999.0
15-08-2022, 00:46:25,    166,    0.0,   20.0,   0.00,   0.00, 1002.0,   40.3, -999.0
15-08-2022, 00:46:34,    166,    0.0,   20.0,   0.00,   0.00, 1002.0,   40.3, -999.0